OPS 4682 DEB, 1316

Orbit data source: Space-Track

OPS 4682 DEB, 1316 is space debris in LEO originally from a launch on Sat, 03 Apr 1965 UTC launched from the Air Force Western Test Range (AFWTR). Debris objects in space refer to the collection of defunct objects orbiting the Earth. Examples of debris include non-operational satellites, rocket bodies, and fragments generated from explosions, collisions, or faulty payload assembly.

Loading next visibility...
Identifier
1316, 1965-027C
Orbit
LEO
Country
Flag of USUS
Related business
Manufacturer
Unknown
Mission
Spacecraft
Bus & Motor
Unknown
Mass
7 kg wet, 7 kg dry
Launch date (UTC)
1965-04-03 (61 years ago)
Launch vehicle
Unknown
Launch site
Air Force Western Test Range (AFWTR)
Object type
Payload
Rocket body
Debris
Shape & HBR
Unknown
Radar Cross Section
Medium (>0.1 m² and <1 m²)

Expand to show TLE details & history
Last TLE update: 19 hours ago

TLE from 19 hours ago
0 OPS 4682 DEB
1 01316U 65027C   26105.69017654  .00000468  00000-0  11010-2 0  9996
2 01316  90.2620  25.9409 0037982 358.0374   2.0606 13.22435254910746
Epoch: 2026-04-15T16:33Z
TLE epoch observation values (Epoch: 2026-04-15T16:33:51.253Z)
Latitude
0.00001°
Longitude
-66.37111°
Altitude
1,149.669 km
Speed
7.292 km/s
True Right ascension
01h 43m 45s
True Declination
0° 00' 00"
Sunlit
Object was in daylight at epoch
Visualization orbit readout
Latitude
Unknown
Longitude
Unknown
Altitude
Unknown
Speed
Unknown
Apparent Right ascension
Unknown
Apparent Declination
Unknown
Sunlit
N/A
Visualization observer readout
Local Sidereal Time
18:03:58
Azimuth
Unknown
Elevation
Unknown
Doppler factor
Unknown
Orbital elements
Apogee altitude
1,201.202 km
Perigee altitude
1,143.844 km
Semi-major axis
7,550.66 km
Eccentricity
0.0038
Inclination
90.262°
RAAN
25.9409°
Arg. of periapsis
358.0374°
True anomaly
2.07632°
Mean anomaly
2.0606°
Eccentric anomaly
2.06845°
Mean motion
3.308 °/min
Orbital period
108.83 mins
BSTAR
0.001101
Loading maneuver chart data...
Computing Atmospheric mass density...
Loading historical data...
Loading historical data...
Loading historical data...
Loading historical data...
Loading historical data...
Loading historical data...
Loading historical data...

Documentation

Showing up to 5 results
|